Time,TemperatureF,DewpointF,PressureIn,WindDirection,WindDirectionDegrees,WindSpeedMPH,WindSpeedGustMPH,Humidity,HourlyPrecipIn,Conditions,Clouds,dailyrainin,SolarRadiationWatts/m^2,SoftwareType,DateUTC
2013-03-21 00:06:00,51.2,50.0,30.12,West,271,0.0,1.0,95,0.00,,,0.00,0,weatherlink.com 1.10,2013-03-21 07:06:00,
2013-03-21 00:21:00,50.9,50.0,30.12,West,275,1.0,5.0,95,0.00,,,0.00,0,weatherlink.com 1.10,2013-03-21 07:21:00,
2013-03-21 00:36:00,50.8,49.0,30.12,West,275,0.0,4.0,94,0.00,,,0.00,0,weatherlink.com 1.10,2013-03-21 07:36:00,
2013-03-21 00:51:00,50.8,49.0,30.12,West,275,0.0,1.0,94,0.00,,,0.00,0,weatherlink.com 1.10,2013-03-21 07:51:00,
2013-03-21 01:06:00,50.7,49.0,30.12,West,275,0.0,0.0,94,0.00,,,0.00,0,weatherlink.com 1.10,2013-03-21 08:06:00,
2013-03-21 01:21:00,50.5,49.0,30.11,West,275,0.0,1.0,94,0.00,,,0.00,0,weatherlink.com 1.10,2013-03-21 08:21:00,
2013-03-21 01:36:00,50.3,49.0,30.11,West,275,0.0,0.0,94,0.00,,,0.00,0,weatherlink.com 1.10,2013-03-21 08:36:00,
2013-03-21 01:51:00,49.8,48.0,30.11,West,275,0.0,2.0,93,0.00,,,0.00,0,weatherlink.com 1.10,2013-03-21 08:51:00,
2013-03-21 02:06:00,49.2,47.0,30.11,West,275,0.0,1.0,93,0.00,,,0.00,0,weatherlink.com 1.10,2013-03-21 09:06:00,
2013-03-21 02:21:00,48.5,46.0,30.11,West,275,0.0,1.0,92,0.00,,,0.00,0,weatherlink.com 1.10,2013-03-21 09:21:00,
2013-03-21 02:36:00,47.8,46.0,30.11,West,275,0.0,1.0,92,0.00,,,0.00,0,weatherlink.com 1.10,2013-03-21 09:36:00,
2013-03-21 02:51:00,47.3,45.0,30.12,West,275,0.0,2.0,92,0.00,,,0.00,0,weatherlink.com 1.10,2013-03-21 09:51:00,
2013-03-21 03:06:00,47.0,45.0,30.11,West,275,0.0,0.0,93,0.00,,,0.00,0,weatherlink.com 1.10,2013-03-21 10:06:00,
2013-03-21 03:21:00,47.1,46.0,30.11,West,275,0.0,2.0,94,0.00,,,0.00,0,weatherlink.com 1.10,2013-03-21 10:21:00,
2013-03-21 03:36:00,47.1,46.0,30.11,West,275,2.0,4.0,94,0.00,,,0.00,0,weatherlink.com 1.10,2013-03-21 10:36:00,
2013-03-21 03:51:00,46.9,45.0,30.10,West,272,3.0,6.0,94,0.00,,,0.00,0,weatherlink.com 1.10,2013-03-21 10:51:00,
2013-03-21 04:06:00,46.2,44.0,30.11,West,277,3.0,8.0,93,0.00,,,0.00,0,weatherlink.com 1.10,2013-03-21 11:06:00,
2013-03-21 04:21:00,45.6,44.0,30.11,West,275,1.0,5.0,93,0.00,,,0.00,0,weatherlink.com 1.10,2013-03-21 11:21:00,
2013-03-21 04:36:00,44.7,43.0,30.11,West,271,3.0,5.0,92,0.00,,,0.00,0,weatherlink.com 1.10,2013-03-21 11:36:00,
2013-03-21 04:52:00,44.4,42.0,30.12,WNW,282,0.0,4.0,92,0.00,,,0.00,0,weatherlink.com 1.10,2013-03-21 11:52:00,
2013-03-21 05:22:00,43.6,42.0,30.10,WNW,284,0.0,3.0,92,0.00,,,0.00,0,weatherlink.com 1.10,2013-03-21 12:22:00,
2013-03-21 05:37:00,43.2,41.0,30.10,WNW,284,1.0,1.0,92,0.00,,,0.00,0,weatherlink.com 1.10,2013-03-21 12:37:00,
2013-03-21 05:52:00,42.8,41.0,30.09,WNW,284,0.0,1.0,92,0.00,,,0.00,0,weatherlink.com 1.10,2013-03-21 12:52:00,
2013-03-21 06:07:00,42.4,41.0,30.09,WNW,284,0.0,1.0,93,0.00,,,0.00,0,weatherlink.com 1.10,2013-03-21 13:07:00,
2013-03-21 06:22:00,42.0,40.0,30.10,WNW,284,0.0,0.0,93,0.00,,,0.00,0,weatherlink.com 1.10,2013-03-21 13:22:00,
2013-03-21 06:37:00,41.7,40.0,30.11,WNW,284,0.0,2.0,93,0.00,,,0.00,0,weatherlink.com 1.10,2013-03-21 13:37:00,
2013-03-21 06:52:00,41.7,40.0,30.11,WNW,284,1.0,2.0,94,0.00,,,0.00,0,weatherlink.com 1.10,2013-03-21 13:52:00,
2013-03-21 07:07:00,41.7,40.0,30.11,WNW,284,0.0,2.0,94,0.00,,,0.00,0,weatherlink.com 1.10,2013-03-21 14:07:00,
2013-03-21 07:22:00,41.5,40.0,30.11,WNW,284,0.0,1.0,94,0.00,,,0.00,9,weatherlink.com 1.10,2013-03-21 14:22:00,
2013-03-21 07:37:00,41.3,40.0,30.11,WNW,284,0.0,0.0,94,0.00,,,0.00,23,weatherlink.com 1.10,2013-03-21 14:37:00,
2013-03-21 07:52:00,41.4,40.0,30.11,WNW,284,0.0,0.0,95,0.00,,,0.00,32,weatherlink.com 1.10,2013-03-21 14:52:00,
2013-03-21 08:07:00,41.6,40.0,30.11,WNW,284,0.0,0.0,95,0.00,,,0.00,44,weatherlink.com 1.10,2013-03-21 15:07:00,
2013-03-21 08:22:00,42.1,41.0,30.12,WNW,284,1.0,1.0,95,0.00,,,0.00,51,weatherlink.com 1.10,2013-03-21 15:22:00,
2013-03-21 08:52:00,43.8,43.0,30.12,West,277,1.0,4.0,96,0.00,,,0.00,67,weatherlink.com 1.10,2013-03-21 15:52:00,
2013-03-21 09:07:00,44.5,44.0,30.11,West,277,3.0,3.0,96,0.00,,,0.00,158,weatherlink.com 1.10,2013-03-21 16:07:00,
2013-03-21 09:22:00,45.1,44.0,30.11,West,277,0.0,3.0,96,0.00,,,0.00,415,weatherlink.com 1.10,2013-03-21 16:22:00,
2013-03-21 09:37:00,45.9,45.0,30.12,West,270,0.0,4.0,96,0.00,,,0.00,478,weatherlink.com 1.10,2013-03-21 16:37:00,
2013-03-21 09:52:00,47.1,46.0,30.11,West,269,2.0,4.0,95,0.00,,,0.00,529,weatherlink.com 1.10,2013-03-21 16:52:00,
2013-03-21 10:07:00,48.2,46.0,30.11,West,266,3.0,4.0,92,0.00,,,0.00,575,weatherlink.com 1.10,2013-03-21 17:07:00,
2013-03-21 10:22:00,49.6,46.0,30.11,West,273,3.0,5.0,88,0.00,,,0.00,617,weatherlink.com 1.10,2013-03-21 17:22:00,
2013-03-21 10:37:00,51.8,47.0,30.12,West,269,3.0,5.0,82,0.00,,,0.00,664,weatherlink.com 1.10,2013-03-21 17:37:00,
2013-03-21 10:52:00,54.2,49.0,30.11,NNE,15,0.0,4.0,81,0.00,,,0.00,701,weatherlink.com 1.10,2013-03-21 17:52:00,
2013-03-21 11:08:00,55.0,48.0,30.12,NW,304,0.0,3.0,76,0.00,,,0.00,733,weatherlink.com 1.10,2013-03-21 18:08:00,
2013-03-21 11:23:00,55.8,46.0,30.11,West,271,0.0,4.0,69,0.00,,,0.00,761,weatherlink.com 1.10,2013-03-21 18:23:00,
2013-03-21 11:38:00,56.3,47.0,30.12,West,280,2.0,4.0,70,0.00,,,0.00,782,weatherlink.com 1.10,2013-03-21 18:38:00,
2013-03-21 11:53:00,57.9,46.0,30.12,East,85,2.0,5.0,65,0.00,,,0.00,807,weatherlink.com 1.10,2013-03-21 18:53:00,
2013-03-21 12:08:00,59.0,49.0,30.11,NE,37,2.0,4.0,69,0.00,,,0.00,826,weatherlink.com 1.10,2013-03-21 19:08:00,
2013-03-21 12:23:00,59.5,46.0,30.11,WNW,284,1.0,3.0,62,0.00,,,0.00,835,weatherlink.com 1.10,2013-03-21 19:23:00,
2013-03-21 12:38:00,58.5,44.0,30.10,ENE,65,0.0,2.0,60,0.00,,,0.00,165,weatherlink.com 1.10,2013-03-21 19:38:00,
2013-03-21 12:53:00,59.3,44.0,30.10,East,92,0.0,7.0,58,0.00,,,0.00,844,weatherlink.com 1.10,2013-03-21 19:53:00,
2013-03-21 13:08:00,59.3,47.0,30.10,East,86,2.0,3.0,63,0.00,,,0.00,72,weatherlink.com 1.10,2013-03-21 20:08:00,
2013-03-21 13:23:00,59.6,47.0,30.09,WSW,251,2.0,4.0,63,0.00,,,0.00,79,weatherlink.com 1.10,2013-03-21 20:23:00,
2013-03-21 13:38:00,59.1,47.0,30.09,WNW,290,0.0,3.0,65,0.00,,,0.00,134,weatherlink.com 1.10,2013-03-21 20:38:00,
2013-03-21 13:53:00,58.7,46.0,30.08,West,277,0.0,6.0,64,0.00,,,0.00,504,weatherlink.com 1.10,2013-03-21 20:53:00,
2013-03-21 14:08:00,58.6,46.0,30.07,West,281,3.0,5.0,64,0.00,,,0.00,255,weatherlink.com 1.10,2013-03-21 21:08:00,
2013-03-21 14:23:00,58.8,46.0,30.07,West,259,6.0,7.0,63,0.00,,,0.00,181,weatherlink.com 1.10,2013-03-21 21:23:00,
2013-03-21 14:38:00,59.0,45.0,30.06,West,277,6.0,7.0,60,0.00,,,0.00,51,weatherlink.com 1.10,2013-03-21 21:38:00,
2013-03-21 14:53:00,59.2,45.0,30.06,WNW,292,0.0,6.0,59,0.00,,,0.00,37,weatherlink.com 1.10,2013-03-21 21:53:00,
2013-03-21 15:08:00,59.1,44.0,30.05,East,79,0.0,2.0,58,0.00,,,0.00,54,weatherlink.com 1.10,2013-03-21 22:08:00,
2013-03-21 15:23:00,59.2,44.0,30.05,West,271,2.0,5.0,58,0.00,,,0.00,33,weatherlink.com 1.10,2013-03-21 22:23:00,
2013-03-21 15:38:00,59.5,44.0,30.04,West,271,4.0,8.0,58,0.00,,,0.00,33,weatherlink.com 1.10,2013-03-21 22:38:00,
2013-03-21 15:53:00,59.7,44.0,30.04,West,260,5.0,8.0,56,0.00,,,0.00,32,weatherlink.com 1.10,2013-03-21 22:53:00,
2013-03-21 16:08:00,59.9,44.0,30.04,NW,304,2.0,7.0,56,0.00,,,0.00,32,weatherlink.com 1.10,2013-03-21 23:08:00,
2013-03-21 16:23:00,60.0,45.0,30.03,WNW,300,2.0,3.0,58,0.00,,,0.00,30,weatherlink.com 1.10,2013-03-21 23:23:00,
2013-03-21 16:38:00,60.2,46.0,30.03,West,281,0.0,5.0,59,0.00,,,0.00,28,weatherlink.com 1.10,2013-03-21 23:38:00,
2013-03-21 16:53:00,60.0,45.0,30.03,West,271,0.0,4.0,59,0.00,,,0.00,30,weatherlink.com 1.10,2013-03-21 23:53:00,
2013-03-21 17:08:00,60.0,46.0,30.02,WNW,289,2.0,5.0,60,0.00,,,0.00,26,weatherlink.com 1.10,2013-03-22 00:08:00,
2013-03-21 17:23:00,59.8,46.0,30.02,West,266,2.0,6.0,61,0.00,,,0.00,91,weatherlink.com 1.10,2013-03-22 00:23:00,
2013-03-21 17:38:00,59.7,46.0,30.02,West,275,3.0,6.0,61,0.00,,,0.00,25,weatherlink.com 1.10,2013-03-22 00:38:00,
2013-03-21 17:53:00,59.3,46.0,30.02,West,274,5.0,7.0,62,0.00,,,0.00,21,weatherlink.com 1.10,2013-03-22 00:53:00,
2013-03-21 18:08:00,58.9,45.0,30.02,West,267,4.0,7.0,61,0.00,,,0.00,18,weatherlink.com 1.10,2013-03-22 01:08:00,
2013-03-21 18:23:00,58.4,45.0,30.02,West,267,3.0,8.0,62,0.00,,,0.00,16,weatherlink.com 1.10,2013-03-22 01:23:00,
2013-03-21 18:38:00,58.1,46.0,30.01,West,274,1.0,5.0,64,0.00,,,0.00,18,weatherlink.com 1.10,2013-03-22 01:38:00,
2013-03-21 18:53:00,57.9,46.0,30.02,West,277,1.0,5.0,65,0.00,,,0.00,11,weatherlink.com 1.10,2013-03-22 01:53:00,
2013-03-21 19:08:00,57.3,46.0,30.02,West,274,3.0,5.0,65,0.00,,,0.00,5,weatherlink.com 1.10,2013-03-22 02:08:00,
2013-03-21 19:23:00,56.6,45.0,30.02,West,272,3.0,4.0,66,0.00,,,0.00,0,weatherlink.com 1.10,2013-03-22 02:23:00,
2013-03-21 19:38:00,55.8,45.0,30.02,West,275,1.0,4.0,68,0.00,,,0.00,0,weatherlink.com 1.10,2013-03-22 02:38:00,
2013-03-21 19:53:00,55.1,45.0,30.02,West,276,2.0,4.0,69,0.00,,,0.00,0,weatherlink.com 1.10,2013-03-22 02:53:00,
2013-03-21 20:08:00,54.6,45.0,30.02,West,275,1.0,4.0,70,0.00,,,0.00,0,weatherlink.com 1.10,2013-03-22 03:08:00,
2013-03-21 20:23:00,54.0,44.0,30.03,West,275,4.0,6.0,70,0.00,,,0.00,0,weatherlink.com 1.10,2013-03-22 03:23:00,
2013-03-21 20:38:00,53.7,44.0,30.03,West,274,0.0,4.0,71,0.00,,,0.00,0,weatherlink.com 1.10,2013-03-22 03:38:00,
2013-03-21 20:53:00,53.2,44.0,30.03,West,274,0.0,0.0,72,0.00,,,0.00,0,weatherlink.com 1.10,2013-03-22 03:53:00,
2013-03-21 21:08:00,52.4,44.0,30.03,West,274,0.0,1.0,73,0.00,,,0.00,0,weatherlink.com 1.10,2013-03-22 04:08:00,
2013-03-21 21:23:00,51.6,44.0,30.04,West,274,0.0,1.0,76,0.00,,,0.00,0,weatherlink.com 1.10,2013-03-22 04:23:00,
2013-03-21 21:38:00,50.5,44.0,30.04,West,274,1.0,3.0,79,0.00,,,0.00,0,weatherlink.com 1.10,2013-03-22 04:38:00,
2013-03-21 21:53:00,49.5,44.0,30.05,West,274,0.0,2.0,81,0.00,,,0.00,0,weatherlink.com 1.10,2013-03-22 04:53:00,
2013-03-21 22:08:00,48.9,44.0,30.05,West,274,0.0,1.0,83,0.00,,,0.00,0,weatherlink.com 1.10,2013-03-22 05:08:00,
2013-03-21 22:23:00,48.5,44.0,30.05,West,274,0.0,1.0,84,0.00,,,0.00,0,weatherlink.com 1.10,2013-03-22 05:23:00,
2013-03-21 22:38:00,48.1,44.0,30.05,West,275,2.0,3.0,85,0.00,,,0.00,0,weatherlink.com 1.10,2013-03-22 05:38:00,
2013-03-21 22:53:00,48.5,44.0,30.05,West,274,1.0,3.0,83,0.00,,,0.00,0,weatherlink.com 1.10,2013-03-22 05:53:00,
2013-03-21 23:08:00,49.1,44.0,30.05,West,271,3.0,4.0,81,0.00,,,0.00,0,weatherlink.com 1.10,2013-03-22 06:08:00,
2013-03-21 23:23:00,49.2,43.0,30.05,West,272,2.0,4.0,79,0.00,,,0.00,0,weatherlink.com 1.10,2013-03-22 06:23:00,
2013-03-21 23:38:00,49.3,43.0,30.05,West,275,0.0,2.0,78,0.00,,,0.00,0,weatherlink.com 1.10,2013-03-22 06:38:00,
2013-03-21 23:53:00,49.3,43.0,30.05,West,269,2.0,5.0,78,0.00,,,0.00,0,weatherlink.com 1.10,2013-03-22 06:53:00,